Powrót do katalogu

CZ-6A DEB

AktywnyPO
NORAD 61134·DEBRIS·🇨🇳 China

Wystrzelony Aug 6, 2024 z Taiyuan Satellite Launch Center

Loading…

Następne Przeloty (najbliższe 24 godziny)

TLE

ŚwieżeSource: Space-Track

Epoka: Sep 14, 2026, 00:25 UTC

1 61134U 24140QC  26257.01767532  .00002430  00000-0  12618-2 0  9998
2 61134  88.9814 264.7647 0108200 328.4618  31.0110 14.11521132105962

Śledź CZ-6A DEB w czasie rzeczywistym z AllMySat

Download on the App Store